Location: Azul
(36.7830°S, 59.8500°W)
Time: 18:35:30
(UTC-03:00)

VELOX 1 - Pass Details

Date: 28 October 2021
Orbit: 627 x 641 km, 98.3° (Epoch: 06 December)

Event Time Altitude Azimuth Distance (km) Brightness Sun altitude
Rises 04:51:05 0° 156° (SSE) 2,956 ? -13.3°
Reaches altitude 10° 04:53:31 10° 145° (SE) 2,037 ? -12.8°
Maximum altitude 04:57:27 31° 83° (E) 1,126 ? -12.1°
Drops below altitude 10° 05:01:19 10° 20° (NNE) 2,007 ? -11.4°
Sets 05:03:42 0° 9° (N) 2,905 ? -11.0°
